Location: *
(41.7492°S, 135.4150°W)
Time: 18:04:44
(UTC+00:00)

N. Korean satellite - Visible Passes

Search period start: 21 January 2022 00:00
Search period end: 31 January 2022 00:00
Orbit: 447 x 491 km, 97.3° (Epoch: 21 January)

Date Brightness Start Highest point End Pass type
(mag) Time Alt. Az. Time Alt. Az. Time Alt. Az.
21 Jan 6.9 13:20:13 10° NNE 13:23:48 74° ESE 13:27:24 10° S visible
22 Jan 8.7 12:51:36 10° NE 12:54:46 30° ESE 12:57:56 10° S visible
23 Jan 9.8 12:23:53 10° E 12:25:50 14° ESE 12:27:47 10° SSE visible
25 Jan 8.4 12:57:04 10° NE 13:00:20 35° ESE 13:03:37 10° S visible
26 Jan 9.7 12:29:05 10° ENE 12:31:20 16° ESE 12:33:36 10° SSE visible
28 Jan 8.0 13:02:26 10° NE 13:05:47 41° ESE 13:09:08 10° S visible
29 Jan 9.6 12:34:13 10° ENE 12:36:43 18° ESE 12:39:13 10° SSE visible
